Location: *
(6.0000°S, 32.3997°W)
Time: 20:02:33
(UTC+00:00)

FALCON 9 DEB - Pass Details

Date: 01 April 2020
Orbit: 429 x 442 km, 53.0° (Epoch: 27 May)

Event Time Altitude Azimuth Distance (km) Brightness Sun altitude
Rises 21:32:27 0° 220° (SW) 2,427 7.5 -20.2°
Reaches altitude 10° 21:34:36 10° 225° (SW) 1,555 6.5 -20.7°
Maximum altitude 21:38:02 57° 304° (WNW) 524 3.7 -21.6°
Enters shadow 21:38:40 47° 348° (NNW) 588 3.8 -21.7°
